カタログに戻る

GALILEO 33 (138)

運用中ナビゲーションMEO
NORAD 67160·PAYLOAD·🇪🇺 EU

打ち上げ Dec 17, 2025 から Guiana Space Centre

Loading…

次のパス (今後24時間)

TLE

最新Source: CelesTrak SupGP

元期: Sep 13, 2026, 23:59 UTC

1 67160C 25302A   26256.99979167  .00000000  00000+0  00000+0 0  2564
2 67160  54.3925  99.5989 0002973 141.8443 161.1829  1.70474476    14

AllMySatでGALILEO 33 (138)をリアルタイム追跡

Download on the App Store